EN

Hourly Weather Vaduz

Today, 12 June, Saturday

Time Temperature Precipitation Wind Pressure Humidity
00:00 +13°C° 0 mm 0 mps 708 mmHg 87%
01:00 +13°C° 0 mm 0 mps 708 mmHg 88%
02:00 +13°C° 0 mm 0 mps 708 mmHg 88%
03:00 +14°C° 0 mm 1 mps 708 mmHg 89%
04:00 +13°C° 0 mm 1 mps 708 mmHg 89%
05:00 +15°C° 0 mm 1 mps 708 mmHg 86%
06:00 +16°C° 0 mm 1 mps 709 mmHg 82%
07:00 +18°C° 0 mm 1 mps 709 mmHg 79%
08:00 +20°C° 0 mm 1 mps 709 mmHg 73%
09:00 +20°C° 0 mm 2 mps 709 mmHg 68%
10:00 +23°C° 0 mm 2 mps 710 mmHg 62%
11:00 +24°C° 0.1 mm 2 mps 710 mmHg 59%
12:00 +25°C° 0.1 mm 2 mps 710 mmHg 56%
13:00 +26°C° 0.1 mm 3 mps 710 mmHg 53%
14:00 +25°C° 0.2 mm 3 mps 710 mmHg 57%
15:00 +25°C° 0.2 mm 3 mps 709 mmHg 62%
16:00 +24°C° 0.2 mm 3 mps 709 mmHg 66%
17:00 +22°C° 0.2 mm 3 mps 709 mmHg 71%
18:00 +21°C° 0.2 mm 3 mps 710 mmHg 76%
19:00 +20°C° 0.2 mm 3 mps 710 mmHg 80%
20:00 +18°C° 0.1 mm 2 mps 710 mmHg 84%
21:00 +17°C° 0.1 mm 2 mps 711 mmHg 88%
22:00 +16°C° 0.1 mm 1 mps 711 mmHg 92%
23:00 +15°C° 0 mm 1 mps 711 mmHg 92%

Tomorrow, 13 June, Sunday

Time Temperature Precipitation Wind Pressure Humidity
00:00 +15°C° 0 mm 1 mps 711 mmHg 92%
01:00 +14°C° 0 mm 0 mps 711 mmHg 92%
02:00 +15°C° 0 mm 1 mps 711 mmHg 92%
03:00 +15°C° 0 mm 1 mps 711 mmHg 92%
04:00 +15°C° 0 mm 1 mps 711 mmHg 92%
05:00 +16°C° 0 mm 1 mps 711 mmHg 89%
06:00 +16°C° 0 mm 1 mps 712 mmHg 86%
07:00 +16°C° 0 mm 1 mps 712 mmHg 84%
08:00 +19°C° 0 mm 1 mps 712 mmHg 77%
09:00 +20°C° 0 mm 1 mps 712 mmHg 71%
10:00 +20°C° 0 mm 2 mps 712 mmHg 64%
11:00 +21°C° 0 mm 2 mps 712 mmHg 60%
12:00 +23°C° 0 mm 2 mps 712 mmHg 56%
13:00 +22°C° 0 mm 3 mps 712 mmHg 52%
14:00 +22°C° 0 mm 3 mps 712 mmHg 52%
15:00 +22°C° 0 mm 3 mps 712 mmHg 53%
16:00 +22°C° 0 mm 4 mps 712 mmHg 53%
17:00 +21°C° 0 mm 4 mps 712 mmHg 59%
18:00 +19°C° 0 mm 3 mps 712 mmHg 65%
19:00 +18°C° 0 mm 3 mps 712 mmHg 71%
20:00 +16°C° 0 mm 3 mps 712 mmHg 75%
21:00 +14°C° 0 mm 3 mps 711 mmHg 80%
22:00 +12°C° 0 mm 3 mps 711 mmHg 84%
23:00 +12°C° 0 mm 2 mps 711 mmHg 85%

Day after tomorrow, 14 June, Monday

Time Temperature Precipitation Wind Pressure Humidity
00:00 +10°C° 0 mm 2 mps 711 mmHg 86%
01:00 +9°C° 0 mm 2 mps 710 mmHg 88%
02:00 +9°C° 0 mm 2 mps 710 mmHg 89%
03:00 +8°C° 0 mm 2 mps 710 mmHg 90%
04:00 +8°C° 0 mm 2 mps 710 mmHg 91%
05:00 +9°C° 0 mm 2 mps 710 mmHg 85%
06:00 +12°C° 0 mm 2 mps 710 mmHg 80%
07:00 +13°C° 0 mm 2 mps 710 mmHg 75%
08:00 +15°C° 0 mm 2 mps 710 mmHg 69%
09:00 +17°C° 0 mm 2 mps 710 mmHg 64%
10:00 +19°C° 0 mm 3 mps 710 mmHg 58%
11:00 +20°C° 0 mm 3 mps 710 mmHg 55%
12:00 +22°C° 0 mm 3 mps 710 mmHg 53%
13:00 +24°C° 0 mm 3 mps 710 mmHg 50%
14:00 +24°C° 0 mm 3 mps 709 mmHg 51%
15:00 +24°C° 0 mm 3 mps 709 mmHg 52%
16:00 +24°C° 0 mm 3 mps 709 mmHg 54%
17:00 +22°C° 0 mm 3 mps 709 mmHg 61%
18:00 +21°C° 0 mm 3 mps 709 mmHg 69%
19:00 +20°C° 0 mm 2 mps 709 mmHg 77%
20:00 +18°C° 0 mm 2 mps 708 mmHg 82%
21:00 +16°C° 0 mm 2 mps 708 mmHg 87%
22:00 +14°C° 0 mm 1 mps 708 mmHg 92%
23:00 +14°C° 0 mm 1 mps 708 mmHg 92%

15 June, Tuesday

Time Temperature Precipitation Wind Pressure Humidity
00:00 +13°C° 0 mm 1 mps 708 mmHg 92%
01:00 +13°C° 0 mm 1 mps 708 mmHg 93%
02:00 +12°C° 0 mm 1 mps 708 mmHg 93%
03:00 +12°C° 0 mm 1 mps 708 mmHg 93%
04:00 +11°C° 0 mm 1 mps 708 mmHg 93%
05:00 +13°C° 0 mm 1 mps 708 mmHg 89%
06:00 +14°C° 0 mm 1 mps 708 mmHg 85%
07:00 +16°C° 0 mm 1 mps 708 mmHg 81%
08:00 +19°C° 0 mm 1 mps 709 mmHg 74%
09:00 +21°C° 0 mm 1 mps 709 mmHg 67%
10:00 +23°C° 0 mm 1 mps 709 mmHg 61%
11:00 +24°C° 0 mm 2 mps 709 mmHg 57%
12:00 +25°C° 0 mm 2 mps 709 mmHg 54%
13:00 +26°C° 0 mm 2 mps 709 mmHg 50%
14:00 +26°C° 0 mm 2 mps 709 mmHg 51%
15:00 +26°C° 0 mm 3 mps 709 mmHg 52%
16:00 +26°C° 0 mm 3 mps 708 mmHg 53%
17:00 +24°C° 0 mm 2 mps 708 mmHg 61%
18:00 +23°C° 0 mm 2 mps 708 mmHg 70%
19:00 +21°C° 0 mm 2 mps 708 mmHg 78%
20:00 +19°C° 0 mm 2 mps 708 mmHg 82%
21:00 +19°C° 0 mm 1 mps 708 mmHg 87%
22:00 +16°C° 0 mm 1 mps 708 mmHg 91%
23:00 +16°C° 0 mm 1 mps 708 mmHg 91%

16 June, Wednesday

Time Temperature Precipitation Wind Pressure Humidity
00:00 +15°C° 0 mm 1 mps 707 mmHg 92%
01:00 +14°C° 0 mm 1 mps 707 mmHg 92%
02:00 +14°C° 0 mm 1 mps 707 mmHg 93%
03:00 +13°C° 0 mm 1 mps 707 mmHg 93%
04:00 +13°C° 0 mm 1 mps 707 mmHg 93%
05:00 +14°C° 0 mm 1 mps 707 mmHg 89%
06:00 +15°C° 0 mm 0 mps 707 mmHg 85%
07:00 +16°C° 0 mm 0 mps 707 mmHg 81%
08:00 +20°C° 0 mm 1 mps 707 mmHg 75%
09:00 +22°C° 0 mm 1 mps 707 mmHg 68%
10:00 +24°C° 0 mm 1 mps 708 mmHg 62%
11:00 +25°C° 0 mm 1 mps 707 mmHg 58%
12:00 +26°C° 0 mm 1 mps 707 mmHg 54%
13:00 +28°C° 0 mm 1 mps 707 mmHg 50%
14:00 +28°C° 0 mm 1 mps 707 mmHg 50%
15:00 +28°C° 0 mm 1 mps 707 mmHg 49%
16:00 +28°C° 0 mm 1 mps 707 mmHg 49%
17:00 +27°C° 0 mm 2 mps 706 mmHg 59%
18:00 +25°C° 0 mm 2 mps 706 mmHg 68%
19:00 +24°C° 0 mm 2 mps 706 mmHg 78%
20:00 +21°C° 0 mm 2 mps 706 mmHg 81%
21:00 +20°C° 0 mm 1 mps 706 mmHg 85%
22:00 +19°C° 0 mm 1 mps 705 mmHg 89%
23:00 +18°C° 0 mm 1 mps 705 mmHg 89%

17 June, Thursday

Time Temperature Precipitation Wind Pressure Humidity
00:00 +18°C° 0 mm 1 mps 705 mmHg 89%
01:00 +16°C° 0 mm 1 mps 705 mmHg 89%
02:00 +16°C° 0 mm 1 mps 705 mmHg 89%
03:00 +16°C° 0 mm 1 mps 705 mmHg 89%
04:00 +14°C° 0 mm 0 mps 705 mmHg 90%
05:00 +16°C° 0 mm 0 mps 706 mmHg 85%
06:00 +17°C° 0 mm 0 mps 706 mmHg 81%
07:00 +19°C° 0 mm 0 mps 706 mmHg 77%
08:00 +21°C° 0 mm 0 mps 706 mmHg 71%
09:00 +22°C° 0 mm 0 mps 706 mmHg 65%
10:00 +26°C° 0 mm 1 mps 707 mmHg 59%
11:00 +28°C° 0 mm 1 mps 707 mmHg 56%
12:00 +29°C° 0 mm 1 mps 706 mmHg 53%
13:00 +30°C° 0 mm 1 mps 706 mmHg 50%
14:00 +30°C° 0 mm 2 mps 706 mmHg 51%
15:00 +30°C° 0 mm 2 mps 706 mmHg 51%
16:00 +30°C° 0 mm 3 mps 705 mmHg 52%
17:00 +28°C° 0 mm 3 mps 705 mmHg 59%
18:00 +27°C° 0 mm 3 mps 705 mmHg 67%
19:00 +25°C° 0 mm 3 mps 704 mmHg 75%
20:00 +24°C° 0.1 mm 2 mps 704 mmHg 80%
21:00 +21°C° 0.1 mm 2 mps 705 mmHg 85%
22:00 +19°C° 0.1 mm 2 mps 705 mmHg 90%
23:00 +19°C° 0.7 mm 2 mps 705 mmHg 91%
Show more